www.pogodaiklimat.ru

Погода и климат >> Архив погоды >> Россия >> Ростовская область >> Матвеев Курган


ПОГОДА в Матвеевом Кургане

  • Прогноз погоды в Матвеевом Кургане
  • Монитор погоды в Матвеевом Кургане

АРХИВ ПОГОДЫ в Матвеевом Кургане

Время (UTC), дата Ветер
(напр.,м/с)
 
Видим.   Явления Облачность Т
(С)
Тd
(С)
f
(%)
Тe
(С)
Тes
(С)
Комфортность P
(гПа)
Po
(гПа)
Тmin
(С)
Tmax
(С)
R
(мм)
R24
(мм)
S
(см)
09 12.08 СЗ 3 20 км 4/4 1000 м
[Cu hum]
+28.3 +9.7 31 +28 +36 жарко 1017.5 1012.5
12 12.08 С 3 20 км 4/4 1000 м
[Cu hum]
+29.5 +8.5 27 +29 +34 жарко 1017.2 1012.4
15 12.08 ЮВ 3 20 км 3/3 1000 м
[Cu hum]
+28.1 +8.9 30 +28 +29 жарко 1017.3 1012.4 +29.7
18 12.08 СВ 1 20 км ясно +21.9 +10.4 48 +24 +24 комфорт 1018.5 1013.5
21 12.08 С 1 20 км ясно +17.5 +11.0 66 +19 +19 1019.4 1014.3
00 13.08 СВ 2 20 км ясно +15.0 +10.6 75 +15 +15 1019.8 1014.7
03 13.08 штиль 0 20 км ясно +13.2 +9.8 80 +13 +13 1020.5 1015.3 +13.1
06 13.08 СЗ 1 20 км ясно +22.3 +11.7 51 +25 +34 комфорт 1020.2 1015.2
09 13.08 В 2 20 км ясно +27.6 +6.4 26 +27 +42 жарко 1019.4 1014.4
12 13.08 С 2 20 км ясно +29.6 +5.6 22 +28 +39 жарко 1017.9 1013.0
15 13.08 С 1 20 км ясно +29.7 +6.3 23 +28 +30 жарко 1016.8 1011.9 +30.6
18 13.08 ЮВ 1 20 км ясно +23.4 +8.3 38 +25 +25 комфорт 1017.2 1012.2
21 13.08 С 1 20 км ясно +18.5 +9.8 57 +20 +20 1017.6 1012.6
00 14.08 СВ 1 20 км ясно +15.6 +9.3 66 +16 +16 1017.1 1011.9
03 14.08 С 1 20 км ясно +13.9 +10.4 79 +14 +15 1017.1 1012.0 +13.6
06 14.08 СЗ 1 20 км ясно +23.8 +12.1 48 +26 +34 жарко 1017.1 1012.1
09 14.08 В 3 20 км ясно +29.6 +7.5 25 +29 +41 жарко 1015.4 1010.5
12 14.08 В 4 20 км ясно +32.0 +5.5 19 +30 +37 жарко 1013.8 1009.0
15 14.08 В 3 20 км ясно +31.4 +6.7 21 +30 +31 жарко 1012.5 1007.7 +32.5
18 14.08 В 3 20 км ясно +26.8 +7.3 29 +26 +26 жарко 1012.6 1007.7
21 14.08 В 3 20 км ясно +24.3 +7.0 33 +24 +24 комфорт 1012.0 1007.0
00 15.08 штиль 0 20 км ясно +17.8 +9.2 57 +18 +18 1011.7 1006.7
03 15.08 СВ 1 20 км ясно +16.7 +7.9 56 +18 +18 1011.7 1006.6 +15.2
06 15.08 ЮВ 3 20 км ясно +27.7 +3.4 21 +26 +32 жарко 1011.0 1006.1
09 15.08 В 4
{12}
20 км 3/0
[Ci fib]
+31.9 +1.1 14 +29 +38 жарко 1009.4 1004.6
12 15.08 В 5-11
{12}
20 км 4/0
[Ci fib]
+35.1 +1.2 12 +32 +37 жарко 1007.4 1002.7
15 15.08 В 4
{11}
20 км 6/0
[Ci fib]
+33.4 +3.2 15 +31 +31 жарко 1006.7 1001.9 +35.8
18 15.08 В 4 20 км 3/0
[Ci fib]
+28.5 +6.9 26 +28 +28 жарко 1007.2 1002.3
21 15.08 ЮВ 1 20 км 3/0
[Ci fib]
+25.9 +6.0 28 +25 +25 комфорт 1007.4 1002.5
00 16.08 ЮВ 1 20 км 8/0
[Ci fib]
+23.1 +5.5 32 +23 +23 комфорт 1007.5 1002.5
03 16.08 В 2 20 км 10/0
[Ci fib]
+21.9 +6.5 37 +23 +23 комфорт 1007.4 1002.5 +21.9
06 16.08 ЮВ 2 20 км 10/6 600 м
[Sc Ac trans]
+21.9 +9.4 45 +23 +25 комфорт 1007.8 1002.8 +21.2
09 16.08 В 2 20 км 10/5 600 м
[Sc Ac trans Ci fib]
+27.0 +10.6 36 +28 +31 жарко 1006.8 1001.9
12 16.08 ЮВ 1 20 км 9/6 600 м
[Sc diur, vesp Ac trans]
+28.3 +11.5 35 +29 +32 жарко 1006.8 1001.9
15 16.08 штиль 0 20 км 10/6 600 м
[Sc Ac trans]
+27.7 +12.5 39 +29 +29 жарко 1006.1 1001.3 +30.0
18 16.08 СВ 1 20 км 10/4 600 м
[Sc Ac trans]
+24.5 +14.3 53 +27 +27 жарко 1006.8 1001.9
21 16.08 штиль 0 20 км 10/10 600 м
[Sc]
+22.8 +15.4 63 +27 +27 душно 1008.2 1003.3
00 17.08 СЗ 2 20 км 10/10 600 м
[Sc]
+21.8 +15.8 69 +25 +25 комфорт 1007.1 1002.2
03 17.08 ЮВ 1 20 км 10/10 600 м
[Sc]
+20.6 +16.4 77 +25 +25 комфорт 1008.3 1003.3 +20.2
06 17.08 СЗ 2 10 км слаб. дождь 10/0 600 м
[As op]
+21.0 +17.6 81 +26 +27 душно 1008.5 1003.5
09 17.08 Ю 1 20 км {дождь} 10/8 600 м
[Sc Ac As]
+24.7 +16.7 61 +28 +29 душно 1008.5 1003.6
12 17.08 ЮЗ 2 20 км {дождь} 9/8 600 м
[Cu med, cong Ac As]
+27.7 +16.0 49 +31 +32 душно 1007.8 1003.0
15 17.08 З 2 20 км 9/8 600 м
[Cu med, cong Ac As]
+26.6 +17.1 56 +31 +31 душно 1008.2 1003.3 +29.4 0.3
18 17.08 З 1 20 км 8/8 1000 м
[Sc]
+22.8 +17.5 72 +28 +28 душно 1009.1 1004.2
21 17.08 С 1 20 км 8/0
[Ci]
+20.2 +15.6 75 +24 +24 комфорт 1009.4 1004.4
00 18.08 С 1 н/о н/о +17.5 +15.0 85 +19 +19 1009.8 1004.8
03 18.08 СЗ 1 20 км 5/0
[Ci]
+16.3 +14.3 88 +17 +17 1010.0 1004.9 +16.3
06 18.08 СЗ 2 20 км 4/0
[Ci fib]
+21.9 +15.3 66 +25 +32 комфорт 1010.5 1005.5 +16.2
09 18.08 ЮЗ 1 20 км 9/3 1000 м
[Cu hum Ci fib]
+27.5 +15.5 48 +30 +40 жарко 1010.2 1005.3
12 18.08 ЮЗ 1 20 км 9/8 600 м
[Sc diur, vesp Ac trans]
+30.0 +14.0 38 +32 +33 жарко 1010.0 1005.1
15 18.08 Ю 2 20 км 9/9 600 м
[Sc diur, vesp]
+28.0 +13.9 42 +30 +30 жарко 1010.6 1005.7 +30.1
18 18.08 В 1 20 км 10/10 600 м
[Sc diur, vesp]
+24.7 +15.3 56 +28 +28 душно 1011.5 1006.6
21 18.08 С 2
{11}
1000 м гроза, ливневой дождь 10/10 300 м
[Cb cap]
+18.7 +17.5 93 +20 +20 1013.5 1008.5
00 19.08 С 1 20 км {гроза, ливн. осадки} 10/10 600 м
[Sc diur, vesp]
+18.6 +17.7 95 +21 +21 комфорт 1014.1 1009.1
03 19.08 С 1 20 км 8/3 600 м
[Sc diur, vesp Ac trans]
+17.7 +16.7 94 +19 +19 1014.4 1009.4 +17.6 45
06 19.08 С 1 20 км в посл. час ливневой дождь 10/10 600 м
[Sc diur, vesp]
+18.9 +17.2 90 +21 +21 комфорт 1016.4 1011.4

 

Местоположение метеостанции Матвеев Курган (Ростовская область, Россия): широта 47.57 долгота 38.88 высота над уровнем моря 43 м.

В архиве по умолчанию представлена погода в Матвеевом Кургане за последнюю неделю. Архивные данные за месяц целиком и за предыдущие месяцы, начиная с января 2011 года, Вы можете получить, выбрав интересующий диапазон дат из раскрывающегося списка и нажав кнопку "Ввод!".


*Определитесь, кто Вы:
робот инопланетянин человек

Внимание! Время в таблицах - всемирное. Для получения местного времени необходимо прибавить поправку, которая равна 3 ч.

Смотрите также архив погоды в соседних городах и на ближайших метеорологических станциях:

Погода в Таганроге (Ростовская область, Россия) (41 км)
Погода в Маргаритово (Ростовская область, Россия) (71 км)
Погода в Ростове-на-Дону (Ростовская область, Россия) (78 км)
Погода в Аэропорту Платов (Ростовская область, Россия) (79 км)
Погода в Ейске (Краснодарский край, Россия) (97 км)
Погода в Шахтах (Ростовская область, Россия) (105 км)
Погода в Волновахе (Донецкая область, Украина) (115 км)
Погода в Староминская (Краснодарский край, Россия) (116 км)
Погода в Мариуполе (Донецкая область, Украина) (120 км)
Погода в Кущевской (Краснодарский край, Россия) (129 км)

Пояснения к столбцам:

Ветер - указаны скорость ветра в м/с - средняя за 10 мин, порывы в срок и между сроками (в фигурных скобках) и направление, откуда дует ветер: С - северный, СВ - северо-восточный, В - восточный, ЮВ - юго-восточный, Ю - южный, ЮЗ - юго-западный, З - западный, СЗ - северо-западный.
Видимость - горизонтальная дальность видимости в метрах или километрах. При видимости от 1 до 10 км при отсутствии осадков обычно наблюдается дымка, при ухудшении видимости до 1 км и менее - туман. В сухую погоду видимость может ухудшаться дымом, пылью или мглою.
Явления - указаны атмосферные явления, наблюдавшиеся в срок или в последний час перед сроком; фигурными скобками обозначены явления, наблюдавшиеся между сроками (за 1-3 часа до срока); квадратными скобками обозначены град или гололедные отложения с указанием их диаметра в мм.
Облачность - указаны через наклонную черту общая и нижняя облачность в баллах и высота нижней границы облаков в метрах; квадратными скобками обозначены формы облаков: Ci - перистые, Cs - перисто-слоистые, Cc - перисто-кучевые, Ac - высококучевые, As - высокослоистые, Sc - слоисто-кучевые, Ns - слоисто-дождевые, Cu - кучевые, Cb - кучево-дождевые. Подробнее классификацию облаков см. в Атласе облаков (PDF).
T - Температура воздуха - температура, измеренная на высоте 2 м над землей.
Td - Температура точки росы - температура, при понижении до которой содержащийся в воздухе водяной пар достигнет насыщения.
f - Относительная влажность воздуха - влажноcть воздуха, измеренная на высоте 2 м над землей.
Te - Эффективная температура - температура, которую ощущает одетый по сезону человек в тени. Характеристика душности погоды. При расчете учитывается влияние влажности воздуха и скорости ветра на теплоощущения человека.
Tes - Эффективная температура на солнце - температура, которую ощущает человек, с поправкой на солнечный нагрев. Характеристика знойности погоды. Зависит от высоты солнца над горизонтом, облачности и скорости ветра. Ночью, в пасмурную погоду, а также при ветре 12 м/с и более поправка равна нулю.
P - Атмосферное давление - приведенное к уровню моря атмосферное давление.
Po - Атмосферное давление - измеренное на уровне метеостанции атмосферное давление.
Tmin - Минимальная температура - минимум температуры воздуха на высоте 2 м над землей.
Tmax - Максимальная температура - максимум температуры воздуха на высоте 2 м над землей.
R - Количество осадков - Количество выпавших осадков за период времени, мм. При наведении курсора мыши на число - период времени, за который выпало указанное количество осадков.
R24 - Количество осадков - Количество выпавших осадков за 24 часа, мм.
S - Снежный покров - Высота снежного покрова, см. При наведении курсора мыши на число - состояние снежного покрова и степень покрытия местности в баллах.